156P/Russell-LINEAR (2000)

Japanese version
Home page
Total 6,336 html files since Dec. 4, 1995
Updated on April 21, 2003

---------------------------------------------------------------------

* Profile

Designation 156P/2000 QD181
Discovery Date August 31, 2000
Magnitude
Discoverer Lincoln Laboratory Near-Earth Asteroid Research project

* Orbital Elements

                    Epoch = 2000 Aug.  4.0 TT
     T = 2000 Aug. 17.6199 TT         Peri. = 357.7420
     e = 0.557054                     Node  =  39.0471  2000.0
     q = 1.596837 AU                  Incl. =  20.7496
       a =  3.605034 AU    n = 0.1439926    P =   6.845 years

* Finding Charts

* Magnitudes Graph

        m1 = 15.8 + 5 log d + 5.0 log r

---------------------------------------------------------------------

The orbital elements are published on IAUC 8118.
The charts are made with StellaNavigator Ver.2.0 for Windows (AstroArts / ASCII).
The magnitudes graphs are made with Comet for Windows.

---------------------------------------------------------------------

Copyright(C) 1995-2008 Seiichi Yoshida (comet@aerith.net). All rights reserved.